KB5SQG Weather Reports


time (UTC)temp
C
wind
direction
speed
KPH
gust
KPH
rain 1hr
cm
rain 24hr
cm
rain mn
cm
humidity
%
barometer
mb
20260906223637 40 0.0 0.0 0.00 0.00 0.00 37 1010.9
20260906222617 40 0.0 0.0 0.00 0.00 0.00 36 1010.9
20260906221617 39 0.0 0.0 0.00 0.00 0.00 34 1011.0
20260906220637 38 0.0 0.0 0.00 0.00 0.00 37 1011.1
20260906215615 38 0.0 1.6 0.00 0.00 0.00 35 1011.2
20260906214617 39 0.0 0.0 0.00 0.00 0.00 35 1011.4
20260906213617 40 0.0 0.0 0.00 0.00 0.00 34 1011.5
20260906212617 39 0.0 0.0 0.00 0.00 0.00 36 1011.6
20260906211617 40 0.0 0.0 0.00 0.00 0.00 34 1011.6
20260906210637 40 0.0 0.0 0.00 0.00 0.00 34 1011.6
20260906205617 40 0.0 0.0 0.00 0.00 0.00 35 1011.8
20260906204617 39 0.0 0.0 0.00 0.00 0.00 37 1011.9
20260906203617 38 0.0 0.0 0.00 0.00 0.00 38 1011.9
20260906202617 39 0.0 0.0 0.00 0.00 0.00 36 1012.1
20260906201617 40 0.0 0.0 0.00 0.00 0.00 35 1012.1
20260906200637 39 0.0 0.0 0.00 0.00 0.00 36 1012.2
20260906195617 39 0.0 0.0 0.00 0.00 0.00 36 1012.4
20260906194617 39 0.0 0.0 0.00 0.00 0.00 37 1012.5
20260906193617 40 0.0 0.0 0.00 0.00 0.00 36 1012.5
20260906192617 40 0.0 0.0 0.00 0.00 0.00 36 1012.7
20260906191657 40 0.0 0.0 0.00 0.00 0.00 35 1012.9
20260906190617 40 0.0 0.0 0.00 0.00 0.00 36 1013.1
20260906185617 38 0.0 0.0 0.00 0.00 0.00 38 1013.2
20260906184617 40 0.0 0.0 0.00 0.00 0.00 37 1013.2
20260906183637 38 0.0 0.0 0.00 0.00 0.00 40 1013.3
20260906182617 39 0.0 0.0 0.00 0.00 0.00 40 1013.4
20260906181617 39 0.0 0.0 0.00 0.00 0.00 38 1013.6
20260906180637 38 0.0 0.0 0.00 0.00 0.00 39 1013.8
20260906175617 38 0.0 0.0 0.00 0.00 0.00 40 1014.0
20260906174617 38 0.0 0.0 0.00 0.00 0.00 42 1014.2
20260906173617 38 0.0 0.0 0.00 0.00 0.00 43 1014.3
20260906172617 38 0.0 0.0 0.00 0.00 0.00 44 1014.5
20260906171617 37 0.0 0.0 0.00 0.00 0.00 45 1014.7
20260906170617 36 0.0 3.2 0.00 0.00 0.00 46 1014.9
20260906165637 37 0.0 0.0 0.00 0.00 0.00 45 1015.1
20260906164617 37 0.0 0.0 0.00 0.00 0.00 46 1015.3
20260906163618 36 0.0 0.0 0.00 0.00 0.00 47 1015.4
20260906162617 36 0.0 0.0 0.00 0.00 0.00 50 1015.6
20260906161617 36 0.0 0.0 0.00 0.00 0.00 52 1015.6
20260906160617 35 0.0 0.0 0.00 0.00 0.00 53 1015.5
20260906155637 34 0.0 1.6 0.00 0.00 0.00 54 1015.5
20260906154617 34 0.0 1.6 0.00 0.00 0.00 54 1015.5
20260906153617 33 0.0 0.0 0.00 0.00 0.00 56 1015.4
20260906152617 33 0.0 1.6 0.00 0.00 0.00 60 1015.3
20260906151657 33 0.0 0.0 0.00 0.00 0.00 62 1015.4
20260906150617 31 0.0 1.6 0.00 0.00 0.00 65 1015.3
20260906145617 31 0.0 3.2 0.00 0.00 0.00 65 1015.5
20260906144657 31 0.0 0.0 0.00 0.00 0.00 66 1015.6
20260906143638 31 0.0 0.0 0.00 0.00 0.00 67 1015.7
20260906142617 30 0.0 0.0 0.00 0.00 0.00 70 1015.7
20260906141617 29 0.0 0.0 0.00 0.00 0.00 73 1015.8
20260906140617 28 0.0 0.0 0.00 0.00 0.00 77 1015.7
20260906135615 27 0.0 0.0 0.00 0.00 0.00 78 1015.8
20260906134637 26 0.0 0.0 0.00 0.00 0.00 82 1015.6
20260906133637 25 0.0 0.0 0.00 0.00 0.00 87 1015.6
20260906132617 24 0.0 0.0 0.00 0.00 0.00 88 1015.6
20260906131617 23 0.0 0.0 0.00 0.00 0.00 88 1015.5
20260906130617 23 0.0 0.0 0.00 0.00 0.00 89 1015.5
20260906125617 22 0.0 0.0 0.00 0.00 0.00 89 1015.3
20260906124617 22 0.0 0.0 0.00 0.00 0.00 90 1015.2
20260906123617 22 0.0 0.0 0.00 0.00 0.00 89 1015.2
20260906122615 22 0.0 0.0 0.00 0.00 0.00 89 1015.1
20260906121615 22 0.0 0.0 0.00 0.00 0.00 89 1015.1
20260906120615 22 0.0 0.0 0.00 0.00 0.00 89 1014.9
20260906115615 22 0.0 0.0 0.00 0.00 0.00 89 1014.7
20260906114615 22 0.0 0.0 0.00 0.00 0.00 88 1014.6
20260906113615 22 0.0 0.0 0.00 0.00 0.00 88 1014.6
20260906112615 22 0.0 0.0 0.00 0.00 0.00 88 1014.5
20260906111615 22 0.0 0.0 0.00 0.00 0.00 87 1014.3
20260906110615 22 0.0 0.0 0.00 0.00 0.00 87 1014.3
20260906105615 22 0.0 0.0 0.00 0.00 0.00 87 1014.2
20260906104615 22 0.0 0.0 0.00 0.00 0.00 87 1014.2
20260906103615 23 0.0 0.0 0.00 0.00 0.00 87 1014.2
20260906102615 23 0.0 0.0 0.00 0.00 0.00 86 1014.1
20260906101616 23 0.0 0.0 0.00 0.00 0.00 86 1014.0
20260906100635 23 0.0 0.0 0.00 0.00 0.00 86 1014.0
20260906095615 23 0.0 0.0 0.00 0.00 0.00 86 1014.0
20260906094615 23 0.0 0.0 0.00 0.00 0.00 86 1013.8
20260906093615 23 0.0 0.0 0.00 0.00 0.00 85 1013.7
20260906092615 23 0.0 0.0 0.00 0.00 0.00 85 1013.6
20260906091615 23 0.0 0.0 0.00 0.00 0.00 85 1013.5
20260906090615 24 0.0 0.0 0.00 0.00 0.00 84 1013.4
20260906085635 24 0.0 0.0 0.00 0.00 0.00 83 1013.3
20260906084615 24 0.0 0.0 0.00 0.00 0.00 83 1013.3
20260906083615 24 0.0 0.0 0.00 0.00 0.00 83 1013.5
20260906082615 25 0.0 0.0 0.00 0.00 0.00 82 1013.6
20260906081656 25 0.0 0.0 0.00 0.00 0.00 82 1013.5
20260906080636 25 0.0 0.0 0.00 0.00 0.00 81 1013.6
20260906075616 25 0.0 0.0 0.00 0.00 0.00 80 1013.6
20260906074615 25 0.0 0.0 0.00 0.00 0.00 80 1013.5
20260906073616 25 0.0 0.0 0.00 0.00 0.00 79 1013.5
20260906072615 25 0.0 0.0 0.00 0.00 0.00 79 1013.5
20260906071615 26 0.0 0.0 0.00 0.00 0.00 78 1013.6
20260906070615 26 0.0 0.0 0.00 0.00 0.00 78 1013.7
20260906065615 26 0.0 0.0 0.00 0.00 0.00 77 1013.6
20260906064616 26 0.0 0.0 0.00 0.00 0.00 77 1013.9
20260906063616 26 0.0 0.0 0.00 0.00 0.00 78 1014.0
20260906062635 26 0.0 0.0 0.00 0.00 0.00 77 1013.9
20260906061656 26 0.0 0.0 0.00 0.00 0.00 75 1014.0
20260906060615 26 0.0 0.0 0.00 0.00 0.00 75 1014.0
20260906055615 27 0.0 0.0 0.00 0.00 0.00 74 1014.0
20260906054615 27 0.0 0.0 0.00 0.00 0.00 73 1014.2
20260906053616 27 0.0 0.0 0.00 0.00 0.00 70 1014.0
20260906052615 28 0.0 0.0 0.00 0.00 0.00 68 1013.8
20260906051615 29 0.0 0.0 0.00 0.00 0.00 67 1013.7
20260906050615 29 0.0 1.6 0.00 0.00 0.00 64 1013.7
20260906045617 30 0.0 1.6 0.00 0.00 0.00 64 1013.7
20260906044617 30 0.0 0.0 0.00 0.00 0.00 62 1013.9
20260906043617 30 0.0 0.0 0.00 0.00 0.00 62 1013.8
20260906042617 30 0.0 0.0 0.00 0.00 0.00 60 1013.6
20260906041617 30 0.0 1.6 0.00 0.00 0.00 59 1013.5
20260906040617 31 0.0 1.6 0.00 0.00 0.00 59 1013.5
20260906035617 31 158 1.6 4.8 0.00 0.00 0.00 59 1013.6
20260906034617 31 0.0 0.0 0.00 0.00 0.00 57 1013.7
20260906033617 31 0.0 1.6 0.00 0.00 0.00 57 1013.6
20260906032617 31 158 1.6 4.8 0.00 0.00 0.00 56 1013.6
20260906031617 31 0.0 1.6 0.00 0.00 0.00 55 1013.4
20260906030657 31 0.0 0.0 0.00 0.00 0.00 54 1013.4
20260906025637 32 0.0 0.0 0.00 0.00 0.00 54 1013.2
20260906024617 32 0.0 1.6 0.00 0.00 0.00 54 1013.1
20260906023617 32 135 1.6 4.8 0.00 0.00 0.00 53 1013.0
20260906022617 32 158 1.6 1.6 0.00 0.00 0.00 53 1012.9
20260906021617 32 68 3.2 6.4 0.00 0.00 0.00 52 1012.7
20260906020617 32 0.0 1.6 0.00 0.00 0.00 52 1012.6
20260906015617 33 0.0 0.0 0.00 0.00 0.00 51 1012.4
20260906014617 33 113 1.6 3.2 0.00 0.00 0.00 51 1012.2
20260906013637 32 0.0 1.6 0.00 0.00 0.00 50 1011.9
20260906012637 32 0.0 0.0 0.00 0.00 0.00 55 1011.7
20260906011617 32 0.0 0.0 0.00 0.00 0.00 49 1011.5
20260906010617 33 0.0 0.0 0.00 0.00 0.00 46 1011.4
20260906005617 34 0.0 0.0 0.00 0.00 0.00 44 1011.4
20260906004617 35 0.0 0.0 0.00 0.00 0.00 42 1011.3
20260906003617 35 0.0 0.0 0.00 0.00 0.00 41 1011.3
20260906002617 36 0.0 0.0 0.00 0.00 0.00 39 1011.3
20260906001617 36 0.0 0.0 0.00 0.00 0.00 39 1011.2
20260906000617 36 0.0 1.6 0.00 0.00 0.00 38 1011.1
20260905235617 37 0.0 1.6 0.00 0.00 0.00 37 1011.1
20260905234617 37 0.0 1.6 0.00 0.00 0.00 36 1011.0
20260905233637 37 90 1.6 3.2 0.00 0.00 0.00 36 1011.0
20260905232617 38 0.0 0.0 0.00 0.00 0.00 35 1010.9
20260905231617 38 0.0 0.0 0.00 0.00 0.00 36 1011.0
20260905230617 38 0.0 0.0 0.00 0.00 0.00 35 1011.0
20260905225617 38 0.0 0.0 0.00 0.00 0.00 35 1010.9
20260905224617 38 0.0 0.0 0.00 0.00 0.00 34 1010.9